FW8607 Weather Reports


time (UTC)temp
C
wind
direction
speed
KPH
gust
KPH
rain 1hr
cm
rain 24hr
cm
rain mn
cm
humidity
%
barometer
mb
20260905160019 24 0.0 4.8 0.00 0.00 0.00 38 1013.4
20260905153019 22 90 4.8 12.9 0.00 0.00 0.00 40 1013.2
20260905150019 21 90 6.4 11.3 0.00 0.00 0.00 46 1013.2
20260905143019 19 90 4.8 11.3 0.00 0.00 0.00 56 1013.0
20260905140019 18 113 4.8 6.4 0.00 0.00 0.00 54 1012.8
20260905133019 17 90 3.2 6.4 0.00 0.00 0.00 59 1012.4
20260905130039 18 315 1.6 6.4 0.00 0.00 0.00 60 1012.2
20260905123039 18 0.0 0.0 0.00 0.00 0.00 59 1012.3
20260905120019 18 135 1.6 4.8 0.00 0.00 0.00 55 1012.3
20260905113019 17 135 1.6 4.8 0.00 0.00 0.00 63 1012.2
20260905110019 18 113 4.8 9.7 0.00 0.00 0.00 68 1012.2
20260905103039 17 113 4.8 9.7 0.00 0.00 0.00 71 1012.4
20260905100018 18 135 3.2 9.7 0.00 0.00 0.00 65 1012.5
20260905093018 18 135 4.8 9.7 0.00 0.00 0.00 67 1012.7
20260905090019 16 90 6.4 11.3 0.00 0.00 0.00 81 1012.7
20260905083019 17 113 3.2 6.4 0.00 0.00 0.00 88 1013.2
20260905080018 17 113 3.2 4.8 0.00 0.00 0.00 89 1013.4
20260905073018 17 0.0 4.8 0.00 0.00 0.00 88 1013.7
20260905070038 16 113 3.2 9.7 0.00 0.00 0.00 86 1013.3
20260905063038 17 113 6.4 11.3 0.00 0.00 0.00 86 1013.4
20260905060018 17 135 3.2 8.0 0.00 0.00 0.00 86 1013.2
20260905053018 17 0.0 0.0 0.00 0.00 0.00 87 1013.2
20260905050018 17 0.0 0.0 0.00 0.00 0.00 86 1013.0
20260905043018 18 248 3.2 6.4 0.00 0.00 0.00 86 1012.4
20260905040018 18 248 4.8 9.7 0.00 0.00 0.00 83 1012.3
20260905033018 19 270 6.4 11.3 0.00 0.00 0.00 81 1012.1
20260905030018 20 270 8.0 12.9 0.00 0.00 0.00 78 1011.9
20260905023018 21 270 9.7 16.1 0.00 0.00 0.00 72 1011.7
20260905020018 23 248 9.7 16.1 0.00 0.00 0.00 60 1011.8
20260905013018 25 270 9.7 16.1 0.00 0.00 0.00 49 1011.7
20260905010017 25 270 9.7 19.3 0.00 0.00 0.00 48 1011.7
20260905003019 26 248 9.7 19.3 0.00 0.00 0.00 49 1011.7
20260905000019 26 248 9.7 20.9 0.00 0.00 0.00 50 1012.0
20260904233019 26 248 11.3 20.9 0.00 0.00 0.00 52 1011.9
20260904230039 26 248 14.5 27.4 0.00 0.00 0.00 54 1011.9
20260904223019 25 248 17.7 29.0 0.00 0.00 0.00 57 1012.2
20260904220019 26 248 16.1 29.0 0.00 0.00 0.00 57 1012.3
20260904213019 26 248 17.7 30.6 0.00 0.00 0.00 55 1012.4
20260904210019 26 248 16.1 29.0 0.00 0.00 0.00 54 1012.3
20260904203019 27 248 14.5 27.4 0.00 0.00 0.00 52 1012.7
20260904200019 27 248 12.9 24.1 0.00 0.00 0.00 52 1012.6
20260904193019 26 248 11.3 20.9 0.00 0.00 0.00 53 1013.0
20260904190018 26 248 11.3 24.1 0.00 0.00 0.00 53 1013.2
20260904183018 25 248 9.7 19.3 0.00 0.00 0.00 55 1013.5
20260904180019 24 270 8.0 16.1 0.00 0.00 0.00 60 1013.6
20260904173019 23 270 6.4 17.7 0.00 0.00 0.00 61 1013.5
20260904170019 22 293 3.2 9.7 0.00 0.00 0.00 66 1013.5
20260904163018 21 68 3.2 9.7 0.00 0.00 0.00 70 1013.4